Weather History for Gwinn, MI

Change the Weather History Date:

Tuesday, December 4, 2012

  Actual Average (KESC) Record (KESC)
Temperature  
Mean Temperature 34 °F -  
Max Temperature 42 °F 30 °F 57 °F (1961)
Min Temperature 23 °F 18 °F 0 °F (1972)
Degree Days  
Heating Degree Days 32    
Moisture  
Dew Point 25 °F    
Average Humidity 72    
Maximum Humidity 86    
Minimum Humidity 47    
Precipitation  
Precipitation 0.01 in - - ()
Sea Level Pressure  
Sea Level Pressure 29.86 in    
Wind  
Wind Speed 11 mph (West)    
Max Wind Speed 23 mph    
Max Gust Speed 31 mph    
Visibility 10 miles    
Events Snow    
Averages and records for this station are not official NWS values.
T = Trace of Precipitation, MM = Missing Value Source: NWS Daily Summary

Daily Weather History Graph

Daily Weather History Graph

Search for Another Location

Airport:

Trip Planner

Search our weather history database for the weather conditions in past years. The results will help you decide how hot, cold, wet, or windy it might be!

Date:

Astronomy

Dec. 04, 2012 Rise Set
Actual Time 8:16 AM EST 5:03 PM EST
Civil Twilight 7:41 AM EST 5:38 PM EST
Nautical Twilight 7:04 AM EST 6:15 PM EST
Astronomical Twilight 6:27 AM EST 6:52 PM EST
Moon 11:04 PM EST (12/4) 11:58 AM EST (12/4)
Length of Visible Light 9h 56m
Length of Day
8h 47m
Waning Gibbous, 69% of the Moon is Illuminated
Dec 4
Waning Gibbous
Dec 6
Last Quarter
Dec 13
New
Dec 20
First Quarter
Dec 28
Full

Hourly Weather History & Observations

Time (EST) Temp. Windchill Dew Point Humidity Pressure Visibility Wind Dir Wind Speed Gust Speed Precip Events Conditions
12:15 AM 44.6 °F 38.4 °F 38.1 °F 78% 29.66 in 10.0 mi West 12.7 mph - N/A   Clear
12:36 AM 43.3 °F 38.1 °F 37.0 °F 78% 29.67 in 10.0 mi West 9.2 mph - N/A   Clear
12:56 AM 42.8 °F 37.0 °F 36.3 °F 78% 29.68 in 10.0 mi West 10.4 mph 17.3 mph N/A   Clear
1:15 AM 42.3 °F 36.8 °F 35.2 °F 76% 29.68 in 10.0 mi WSW 9.2 mph - N/A   Clear
1:36 AM 41.4 °F 35.2 °F 34.7 °F 77% 29.68 in 10.0 mi WSW 10.4 mph - N/A   Clear
1:56 AM 40.8 °F 34.5 °F 34.0 °F 77% 29.68 in 10.0 mi SW 10.4 mph - N/A   Clear
2:15 AM 39.9 °F 33.9 °F 33.6 °F 78% 29.68 in 10.0 mi SW 9.2 mph - N/A   Clear
2:36 AM 37.9 °F 31.5 °F 33.3 °F 83% 29.69 in 10.0 mi SSW 9.2 mph - N/A   Clear
2:56 AM 38.3 °F 31.4 °F 33.1 °F 81% 29.70 in 10.0 mi SW 10.4 mph - N/A   Clear
3:16 AM 37.8 °F 31.3 °F 32.5 °F 81% 29.71 in 10.0 mi SSW 9.2 mph - N/A   Clear
3:36 AM 37.4 °F 30.3 °F 32.2 °F 81% 29.71 in 10.0 mi SSW 10.4 mph - N/A   Clear
3:56 AM 36.3 °F 30.1 °F 32.0 °F 84% 29.71 in 10.0 mi South 8.1 mph - N/A   Clear
4:16 AM 35.8 °F 29.4 °F 32.0 °F 86% 29.71 in 10.0 mi SSW 8.1 mph - N/A   Clear
4:36 AM 36.0 °F 29.6 °F 31.5 °F 84% 29.71 in 10.0 mi SSW 8.1 mph - N/A   Clear
4:55 AM 35.6 °F 29.2 °F 31.1 °F 84% 29.72 in 10.0 mi SW 8.1 mph - N/A   Clear
5:16 AM 36.3 °F 30.1 °F 30.2 °F 78% 29.72 in 10.0 mi WSW 8.1 mph - N/A   Clear
5:36 AM 36.3 °F 30.8 °F 29.5 °F 76% 29.72 in 10.0 mi SW 6.9 mph - N/A   Clear
5:55 AM 35.6 °F 31.7 °F 29.3 °F 78% 29.73 in 10.0 mi SW 4.6 mph - N/A   Clear
6:50 AM 35.6 °F 31.7 °F 28.4 °F 75% 29.76 in 10.0 mi West 4.6 mph - N/A   Clear
7:50 AM 35.6 °F 30.7 °F 26.6 °F 70% 29.79 in 10.0 mi WSW 5.8 mph - N/A   Clear
8:50 AM 33.8 °F 27.7 °F 26.6 °F 75% 29.82 in 10.0 mi West 6.9 mph - N/A   Clear
9:50 AM 35.6 °F 29.2 °F 23.0 °F 60% 29.83 in 10.0 mi West 8.1 mph 13.8 mph N/A   Clear
10:50 AM 35.6 °F 25.5 °F 21.2 °F 56% 29.84 in 10.0 mi WNW 17.3 mph 24.2 mph N/A   Clear
11:50 AM 33.8 °F 24.8 °F 21.2 °F 60% 29.86 in 10.0 mi WNW 12.7 mph 18.4 mph N/A   Mostly Cloudy
12:50 PM 32.0 °F 21.6 °F 21.2 °F 64% 29.87 in 10.0 mi NW 15.0 mph 18.4 mph N/A   Mostly Cloudy
1:50 PM 32.0 °F 22.5 °F 19.4 °F 60% 29.90 in 10.0 mi WNW 12.7 mph 21.9 mph N/A   Mostly Cloudy
2:55 PM 32.0 °F 20.8 °F 14.0 °F 48% 29.92 in 10.0 mi WNW 17.3 mph 26.5 mph N/A   Scattered Clouds
3:50 PM 30.2 °F 18.1 °F 12.2 °F 47% 29.97 in 10.0 mi NW 18.4 mph 23.0 mph N/A   Scattered Clouds
4:50 PM 26.6 °F 12.0 °F 10.4 °F 51% 30.02 in 10.0 mi NW 23.0 mph 31.1 mph N/A   Scattered Clouds
5:50 PM 24.8 °F 10.0 °F 12.2 °F 59% 30.06 in 10.0 mi NW 21.9 mph 28.8 mph N/A Snow Light Snow
6:50 PM 24.8 °F 9.6 °F 14.0 °F 64% 30.08 in 10.0 mi NW 23.0 mph 28.8 mph N/A Snow Light Snow
7:50 PM 23.0 °F 10.1 °F 14.0 °F 68% 30.10 in 10.0 mi WNW 15.0 mph 20.7 mph N/A Snow Light Snow
8:50 PM 23.0 °F 10.1 °F 14.0 °F 68% 30.12 in 10.0 mi WNW 15.0 mph - N/A Snow Light Snow
9:50 PM 23.0 °F 11.7 °F 15.8 °F 74% 30.13 in 10.0 mi WNW 11.5 mph - N/A Snow Light Snow
10:16 PM 23.7 °F 14.7 °F 17.2 °F 76% 30.15 in 10.0 mi WNW 8.1 mph - N/A Snow Light Snow
10:35 PM 23.9 °F 16.8 °F 17.6 °F 77% 30.16 in 10.0 mi WNW 5.8 mph - N/A Snow Light Snow
10:56 PM 23.9 °F 15.0 °F 18.0 °F 78% 30.15 in 10.0 mi West 8.1 mph - N/A Snow Light Snow
11:16 PM 23.9 °F 15.0 °F 18.3 °F 79% 30.16 in 10.0 mi WNW 8.1 mph - N/A   Overcast
11:35 PM 24.4 °F 14.9 °F 17.6 °F 75% 30.17 in 10.0 mi WNW 9.2 mph - N/A   Overcast
11:56 PM 24.8 °F 14.6 °F 17.2 °F 73% 30.18 in 7.0 mi NW 10.4 mph - N/A Snow Light Snow